Content
SEND FEEDBACK

Daily
Averages
Monthly
Summary
Brazil

MACAPA, AMAPÁ


Home > South America > Brazil > Amapá
Elevation: 49 feet     Latitude: 00 02N     Longitude: 051 03W

WEATHER
 
SELECT A DAY
Number of Records: 173,630;   Date Range: 6/30/96 - 10/20/14
 
SHARE

PRINT THIS DATA

[ ← Previous Day ]
WEATHER ALMANAC - JANUARY 31, 2013
[ Next Day → ]
[ °C ]   °F
Weather ElementAverageHighLow
Temperature84.7 °F95 °F (3:00 pm)77 °F (6:00 am)
Dewpoint75.4 °F77 °F (4:00 am)73.4 °F (3:00 pm)
Humidity74.5 %100 % (6:00 am)49 % (3:00 pm)
Barometer29.83 in29.89 in (9:00 am)29.77 in (4:00 pm)
Wind Speed9.2 mph15 mph (4:00 pm)
Weather ElementAverage
Visibility6 mi
Wind DirectionENE (61.2 °)

Weather ElementTotal
Precipitation---
Cooling Degree Days21 (Base 65)
Growing Degree Days36 (Base 50)
Averaged from 26 records on January 31, 2013
WEATHER CONDITIONS BREAKOUT
WIND DIRECTION BREAKOUT
WEATHER BY HOUR - JANUARY 31, 2013
[ °C ]   °F
Local TimeTemperatureDewpointHumidityBarometerVisibilityWind DirectionWind SpeedGust SpeedPrecipitationEventsConditions
1:00 AM80.6 °F75.2 °F84 %29.86 inNE (40°)9.2 mphClear
2:00 AM78.8 °F75.2 °F89 %29.83 inNNE (30°)6.9 mphClear
3:00 AM78.8 °F75.2 °F89 %29.83 inNNE (30°)6.9 mphClear
4:00 AM78.8 °F77.0 °F94 %29.83 in6.2 miNorth (10°)4.6 mphMostly Cloudy
5:00 AM78.8 °F77.0 °F94 %29.83 in6.2 miNNE (20°)6.9 mphMostly Cloudy
6:00 AM77.0 °F77.0 °F100 %29.86 in6.2 miNNW (340°)4.6 mphMostly Cloudy
7:00 AM78.8 °F77.0 °F94 %29.86 in6.2 miNNE (20°)6.9 mphMostly Cloudy
8:00 AM80.6 °F77.0 °F89 %29.86 in6.2 miENE (60°)9.2 mphMostly Cloudy
9:00 AM81.0 °F77.0 °F84 %29.88 in6.0 miNorth6.9 mphPartly Cloudy
9:00 AM82.4 °F77.0 °F84 %29.89 in6.2 miENE (60°)6.9 mphMostly Cloudy
10:00 AM87.8 °F77.0 °F70 %29.89 in6.2 miENE (60°)11.5 mphMostly Cloudy
11:00 AM89.6 °F75.2 °F62 %29.89 in6.2 miNNE (20°)11.5 mphScattered Clouds
12:00 PM91.4 °F75.2 °F59 %29.86 in6.2 miENE (60°)6.9 mphScattered Clouds
1:00 PM93.2 °F75.2 °F56 %29.86 in6.2 miENE (70°)9.2 mphScattered Clouds
2:00 PM93.2 °F75.2 °F56 %29.83 in6.2 miENE (70°)9.2 mphScattered Clouds
3:00 PM90.0 °F75.0 °F52 %29.79 in6.0 miENE (70°)6.9 mphScattered Clouds
3:00 PM95.0 °F73.4 °F49 %29.80 in6.2 miENE (70°)12.7 mphScattered Clouds
4:00 PM93.2 °F73.4 °F52 %29.77 in6.2 miENE (60°)15.0 mphScattered Clouds
5:00 PM91.4 °F73.4 °F55 %29.77 in6.2 miENE (60°)15.0 mphScattered Clouds
6:00 PM87.8 °F73.4 °F62 %29.77 in6.2 miENE (60°)13.8 mphPartly Cloudy
7:00 PM84.2 °F73.4 °F70 %29.77 in6.2 miEast (80°)12.7 mphPartly Cloudy
8:00 PM84.2 °F73.4 °F70 %29.80 in6.2 miENE (70°)13.8 mphPartly Cloudy
9:00 PM82.0 °F76.0 °F76 %29.85 in2.0 miNE (50°)6.9 mphPartly Cloudy
9:00 PM82.4 °F75.2 °F79 %29.83 inENE (60°)9.2 mphClear
10:00 PM80.6 °F75.2 °F84 %29.83 inENE (60°)6.9 mphClear
11:00 PM80.6 °F75.2 °F84 %29.83 inENE (60°)9.2 mphClear
Hourly data recorded from SBMQ, located miles away from Macapa, Amapá







STORIES FROM OUR PARTNERS